Weather History for Mount Ida, AR

Change the Weather History Date:

Wednesday, November 21, 2012

  Actual Average (KHOT) Record (KHOT)
Temperature  
Mean Temperature 54 °F -  
Max Temperature 72 °F 62 °F 77 °F (1989)
Min Temperature 35 °F 40 °F 23 °F (2000)
Degree Days  
Heating Degree Days 12    
Growing Degree Days 4 (Base 50)    
Moisture  
Dew Point 40 °F    
Average Humidity 78    
Maximum Humidity 100    
Minimum Humidity 30    
Precipitation  
Precipitation 0.00 in - - ()
Sea Level Pressure  
Sea Level Pressure 30.21 in    
Wind  
Wind Speed 0 mph (East)    
Max Wind Speed 4 mph    
Max Gust Speed -    
Visibility 7 miles    
Events      
Averages and records for this station are not official NWS values.
T = Trace of Precipitation, MM = Missing Value Source: NWS Daily Summary

Daily Weather History Graph

Daily Weather History Graph

Search for Another Location

Airport:

Trip Planner

Search our weather history database for the weather conditions in past years. The results will help you decide how hot, cold, wet, or windy it might be!

Date:

Astronomy

Nov. 21, 2012 Rise Set
Actual Time 6:54 AM CST 5:06 PM CST
Civil Twilight 6:27 AM CST 5:33 PM CST
Nautical Twilight 5:56 AM CST 6:04 PM CST
Astronomical Twilight 5:26 AM CST 6:34 PM CST
Moon 1:09 PM CST (11/21) 12:29 AM CST (11/21)
Length of Visible Light 11h 06m
Length of Day
10h 12m
First Quarter, 62% of the Moon is Illuminated
Nov 21
First Quarter
Nov 28
Full
Dec 6
Last Quarter
Dec 13
New
Dec 19
First Quarter

Hourly Weather History & Observations

Time (CST) Temp. Dew Point Humidity Pressure Visibility Wind Dir Wind Speed Gust Speed Precip Events Conditions
12:53 AM 45.0 °F 44.1 °F 97% 30.18 in 4.0 mi Calm Calm - N/A   Clear
1:24 AM 44.6 °F 42.8 °F 93% 30.19 in 2.5 mi Calm Calm - N/A   Clear
1:34 AM 42.8 °F 42.8 °F 100% 30.19 in 3.0 mi Calm Calm - N/A   Clear
1:53 AM 42.1 °F 41.0 °F 96% 30.19 in 4.0 mi Calm Calm - N/A   Clear
2:53 AM 41.0 °F 39.9 °F 96% 30.20 in 4.0 mi Calm Calm - N/A   Clear
3:20 AM 41.0 °F 39.2 °F 93% 30.21 in 2.5 mi Calm Calm - N/A   Clear
3:35 AM 39.2 °F 39.2 °F 100% 30.21 in 3.0 mi Calm Calm - N/A   Clear
3:53 AM 37.9 °F 37.9 °F 100% 30.21 in 4.0 mi Calm Calm - N/A   Clear
4:53 AM 37.9 °F 37.0 °F 97% 30.22 in 4.0 mi Calm Calm - N/A   Clear
5:53 AM 36.0 °F 36.0 °F 100% 30.23 in 4.0 mi Calm Calm - N/A   Clear
6:53 AM 37.0 °F 36.0 °F 96% 30.26 in 2.5 mi Calm Calm - N/A   Clear
7:12 AM 35.6 °F 35.6 °F 100% 30.25 in 4.0 mi Calm Calm - N/A   Clear
7:53 AM 37.0 °F 37.0 °F 100% 30.27 in 5.0 mi Calm Calm - N/A   Clear
8:53 AM 48.0 °F 45.0 °F 89% 30.28 in 10.0 mi Calm Calm - N/A   Clear
9:53 AM 57.0 °F 46.9 °F 69% 30.29 in 10.0 mi Calm Calm - N/A   Clear
10:53 AM 61.0 °F 45.0 °F 56% 30.28 in 10.0 mi Calm Calm - N/A   Clear
11:53 AM 64.9 °F 46.0 °F 50% 30.25 in 10.0 mi Calm Calm - N/A   Clear
12:53 PM 70.0 °F 39.0 °F 32% 30.21 in 10.0 mi East 3.5 mph - N/A   Clear
1:53 PM 70.0 °F 39.9 °F 33% 30.19 in 10.0 mi Calm Calm - N/A   Clear
2:53 PM 72.0 °F 39.0 °F 30% 30.17 in 10.0 mi Calm Calm - N/A   Clear
3:53 PM 72.0 °F 39.0 °F 30% 30.17 in 10.0 mi Calm Calm - N/A   Clear
4:53 PM 63.0 °F 43.0 °F 48% 30.17 in 10.0 mi Calm Calm - N/A   Clear
5:53 PM 57.9 °F 41.0 °F 53% 30.19 in 10.0 mi Calm Calm - N/A   Clear
6:53 PM 52.0 °F 42.1 °F 69% 30.19 in 10.0 mi Calm Calm - N/A   Clear
7:53 PM 48.0 °F 41.0 °F 77% 30.19 in 10.0 mi Calm Calm - N/A   Clear
8:53 PM 44.1 °F 41.0 °F 89% 30.19 in 10.0 mi Calm Calm - N/A   Clear
9:53 PM 44.1 °F 39.9 °F 85% 30.18 in 10.0 mi Calm Calm - N/A   Clear
10:53 PM 42.1 °F 39.0 °F 89% 30.17 in 10.0 mi Calm Calm - N/A   Clear
11:53 PM 39.0 °F 37.0 °F 93% 30.16 in 10.0 mi Calm Calm - N/A   Clear